カタログに戻る

COSMOS 1361

運用中軍事LEO
NORAD 13164·PAYLOAD·🇷🇺 Russia

打ち上げ May 6, 1982 から Plesetsk Cosmodrome

Loading…

次のパス (今後24時間)

TLE

最新Source: Space-Track

元期: Sep 14, 2026, 11:34 UTC

1 13164U 82040E   26257.48223300 -.00000021  00000-0 -35521-4 0  9998
2 13164  74.0082 267.0402 0013784  36.7220 129.8232 12.48212128 21261

AllMySatでCOSMOS 1361をリアルタイム追跡

Download on the App Store